Location: L�Ave Maria
(50.7161°N, 1.5911°E)
Time: 13:26:08
(UTC+00:00)

Cosmos 2297 - Pass Details

Date: 10 July 2020
Orbit: 835 x 859 km, 71.0° (Epoch: 06 August)

Event Time Altitude Azimuth Distance (km) Brightness Sun altitude
Rises 21:38:04 0° 331° (NNW) 3,446 9.1 -10.8°
Reaches altitude 10° 21:40:34 10° 335° (NNW) 2,504 7.7 -11.1°
Maximum altitude 21:46:17 62° 56° (NE) 963 4.0 -11.5°
Enters shadow 21:51:00 15° 135° (SE) 2,140 5.2 -11.9°
